[[{"header":{"parameterUnit":"m.s-1","parameterCategory":1,"la1":30.2992,"la2":30.254,"lo1":-89.0895,"lo2":-89.0443,"dy":0.0025,"dx":0.0025,"nx":19,"ny":19,"refTime":"2026-05-12T03:00:00:Z","depth":0,"parameterNumber":2,"parameterNumberName":"U-component_of_WINDS"},"data":[0,0,0,0.2374,0.2376,0.2505,0.2506,0.264,0.2641,0,0,0,0,0,0,0,0,0,0,0,0.2318,0.2319,0.2374,0.2377,0.2505,0.2506,0.264,0.2641,0,0,0,0,0,0,0,0,0,0,0,0.2318,0.2319,0.2319,0.2377,0.2505,0.2506,0.2639,0.2553,0,0,0,0,0,0,0,0,0,0,0.2433,0.2365,0.2318,0.2319,0.2378,0.2505,0.2506,0.2549,0.2558,0.2568,0,0.2574,0,0.2609,0.2648,0.2648,0,0,0,0.2389,0.2357,0.2408,0.2319,0.2379,0.2505,0.2451,0.2555,0.2565,0.258,0.2576,0.2582,0.2612,0.2648,0.2649,0.2669,0.2668,0,0,0.2382,0.2332,0.2401,0.2414,0.2393,0.2447,0.2455,0.2561,0.2553,0.2577,0.2586,0.2614,0.2649,0.265,0.2669,0.2669,0,0,0,0.2353,0.2326,0.2375,0.2407,0.2433,0.245,0.2459,0.2548,0.2569,0.2587,0.2615,0.265,0.2651,0.267,0.2669,0.2595,0,0,0,0.2349,0.2309,0.2371,0.2342,0.243,0.2492,0.2443,0.2561,0.2575,0.2615,0.265,0.2652,0.2671,0.267,0.2598,0.2566,0,0,0,0.2316,0.2306,0.2319,0.2339,0.2393,0.2492,0.2519,0.2565,0.2591,0.2648,0.2652,0.2671,0.267,0.2601,0.2572,0.2556,0,0,0,0.2265,0.225,0.2316,0.2311,0.2391,0.2446,0.2519,0.2562,0.2602,0.265,0.2671,0.2669,0.2602,0.2575,0.2558,0.2531,0.2516,0,0,0.2218,0.2243,0.2244,0.2307,0.2337,0.243,0.245,0.2534,0.2585,0.2637,0.2639,0.2597,0.2572,0.2556,0.2452,0.2439,0,0,0,0.2211,0.2211,0.223,0.2267,0.2332,0.2384,0.2471,0.2502,0.255,0.2602,0.259,0.2577,0.2569,0.2558,0.2548,0.2544,0.2663,0.2663,0.2663,0.207,0.2138,0.2143,0.2226,0.2261,0.2351,0.2385,0.2442,0.25,0.2496,0.251,0.2439,0.2425,0.2417,0.2412,0.2504,0.2504,0.2504,0.2504,0.2005,0.2014,0.2093,0.2126,0.2197,0.2225,0.2312,0.2352,0.2387,0.2434,0.2431,0.2473,0.2401,0.24,0.2499,0.2499,0.25,0.2501,0.2501,0.1917,0.1933,0.1973,0.2033,0.2072,0.2157,0.2188,0.2252,0.2313,0.231,0.2332,0.2333,0.234,0.2317,0.2317,0.2316,0.2316,0.2316,0.2316,0.1809,0.1857,0.1875,0.1944,0.1976,0.2026,0.2118,0.2151,0.2203,0.2248,0.2248,0.2304,0.2383,0.24,0.2312,0.2313,0.2313,0.2314,0.2314,0.1712,0.1745,0.1773,0.1805,0.1891,0.1924,0.2008,0.2069,0.2106,0.2118,0.2177,0.2226,0.2255,0.2264,0.2278,0.2164,0.2164,0.2164,0.2164,0.1635,0.1658,0.1701,0.1748,0.1802,0.1881,0.1908,0.198,0.2059,0.2085,0.2112,0.2137,0.2144,0.2169,0.218,0.2194,0.2061,0.2061,0.2061,0.1578,0.1609,0.1621,0.17,0.1772,0.1832,0.186,0.191,0.2007,0.2058,0.2107,0.2111,0.2153,0.2164,0.2212,0.2228,0.2255,0,0]},{"header":{"parameterUnit":"m.s-1","parameterCategory":1,"la1":30.2992,"la2":30.254,"lo1":-89.0895,"lo2":-89.0443,"dy":0.0025,"dx":0.0025,"nx":19,"ny":19,"refTime":"2026-05-12T03:00:00:Z","depth":0,"parameterNumber":3,"parameterNumberName":"V-component_of_WINDS"},"data":[0,0,0,-2.769,-2.7693,-2.7838,-2.7839,-2.8015,-2.8016,0,0,0,0,0,0,0,0,0,0,0,-2.7645,-2.7646,-2.769,-2.7693,-2.7838,-2.7839,-2.8015,-2.8016,0,0,0,0,0,0,0,0,0,0,0,-2.7644,-2.7646,-2.7647,-2.7694,-2.7838,-2.7839,-2.8014,-2.7907,0,0,0,0,0,0,0,0,0,0,-2.7768,-2.7725,-2.7646,-2.7647,-2.7695,-2.7838,-2.7839,-2.7902,-2.7914,-2.7947,0,-2.7978,0,-2.8,-2.8028,-2.8029,0,0,0,-2.7694,-2.7715,-2.7757,-2.7648,-2.7696,-2.7838,-2.7773,-2.7909,-2.7922,-2.7962,-2.7981,-2.7987,-2.8003,-2.8029,-2.803,-2.8225,-2.8226,0,0,-2.7686,-2.7669,-2.7748,-2.7765,-2.7746,-2.7768,-2.7777,-2.7917,-2.7935,-2.7981,-2.7991,-2.8006,-2.803,-2.8032,-2.8224,-2.8225,0,0,0,-2.7663,-2.7663,-2.7702,-2.7758,-2.7785,-2.7772,-2.7783,-2.7928,-2.7942,-2.7993,-2.8008,-2.8031,-2.8033,-2.8224,-2.8225,-2.8255,0,0,0,-2.7658,-2.765,-2.7698,-2.7689,-2.7782,-2.7859,-2.7791,-2.7933,-2.7949,-2.8007,-2.8031,-2.8035,-2.8223,-2.8224,-2.8252,-2.8272,0,0,0,-2.7636,-2.7647,-2.7668,-2.7688,-2.775,-2.7857,-2.788,-2.7937,-2.7958,-2.8029,-2.8035,-2.8222,-2.8224,-2.825,-2.8267,-2.832,0,0,0,-2.7607,-2.769,-2.7668,-2.7766,-2.7749,-2.7876,-2.7879,-2.7973,-2.8037,-2.8032,-2.8223,-2.8225,-2.8249,-2.8265,-2.8317,-2.8362,-2.8379,0,0,-2.7702,-2.77,-2.7759,-2.7744,-2.7872,-2.7855,-2.7986,-2.8058,-2.8077,-2.8174,-2.8179,-2.8253,-2.8267,-2.8319,-2.8478,-2.8491,0,0,0,-2.7784,-2.7826,-2.7863,-2.7926,-2.7986,-2.8038,-2.8093,-2.812,-2.8204,-2.8125,-2.8286,-2.8295,-2.8326,-2.8348,-2.836,-2.8388,-2.8234,-2.8234,-2.8234,-2.7893,-2.7917,-2.8017,-2.8059,-2.8119,-2.8177,-2.8227,-2.8272,-2.8276,-2.8314,-2.8343,-2.8437,-2.8462,-2.8471,-2.85,-2.8368,-2.8368,-2.8368,-2.8368,-2.8034,-2.8099,-2.8106,-2.8205,-2.823,-2.8312,-2.8369,-2.837,-2.8449,-2.8416,-2.8445,-2.8409,-2.8485,-2.8512,-2.837,-2.837,-2.837,-2.8369,-2.8369,-2.8109,-2.8145,-2.8179,-2.8273,-2.8342,-2.8381,-2.8458,-2.8475,-2.8492,-2.8521,-2.8554,-2.8554,-2.8556,-2.8535,-2.8536,-2.8536,-2.8536,-2.8536,-2.8537,-2.8174,-2.8212,-2.8277,-2.8349,-2.8393,-2.8452,-2.851,-2.8552,-2.8603,-2.861,-2.861,-2.8611,-2.8488,-2.8458,-2.8542,-2.8541,-2.854,-2.854,-2.8539,-2.8311,-2.8284,-2.8383,-2.8427,-2.8514,-2.8582,-2.8605,-2.8689,-2.8726,-2.8763,-2.8758,-2.8665,-2.8663,-2.8654,-2.8629,-2.8753,-2.8753,-2.8753,-2.8753,-2.8375,-2.8377,-2.8485,-2.8554,-2.8623,-2.8655,-2.8765,-2.8811,-2.8853,-2.8878,-2.8862,-2.883,-2.882,-2.8825,-2.8812,-2.8789,-2.895,-2.895,-2.8951,-2.8461,-2.8471,-2.8563,-2.8608,-2.8678,-2.8737,-2.8841,-2.8917,-2.8959,-2.8959,-2.8897,-2.8889,-2.8837,-2.8819,-2.8817,-2.8797,-2.8755,0,0]}]]